User: anonymous   Login
Location: Cadeilhan
(42.8161°N, 0.3161°E)
Time: 21:45:57
(UTC+00:00)
Language:

Cosmos 1954 Rocket - Orbit

View from above orbital plane
View from above orbital plane
View from above satellite
View from above satellite

Ground track
Ground track

The orbit data is extracted from the following two-line orbital elements,

1 19257U 88053B   20158.39515542 +.00000063 +00000-0 +29906-4 0  9997
2 19257 074.0499 021.3202 0020363 000.5857 172.0667 14.37469099674411
Epoch (UTC): 06 June 2020 09:29:01
Eccentricity: 0.0020363
inclination: 74.0499°
perigee height: 752 km
apogee height: 781 km
right ascension of ascending node: 21.3202°
argument of perigee: 0.5857°
revolutions per day: 14.37469099
mean anomaly at epoch: 172.0667°
orbit number at epoch: 67441

The dashed part of the orbit path shows where the satellite is in the earth's shadow,  

DLR